Time,TemperatureF,DewpointF,PressureIn,WindDirection,WindDirectionDegrees,WindSpeedMPH,WindSpeedGustMPH,Humidity,HourlyPrecipIn,Conditions,Clouds,dailyrainin,SolarRadiationWatts/m^2,SoftwareType,DateUTC
2013-10-12 00:01:00,50.2,49.0,30.11,North,9,0.0,-999.0,94,-99.99,,,0.00,0,weatherlink.com 1.10,2013-10-12 04:01:00,
2013-10-12 00:16:00,50.4,49.0,30.11,North,9,0.0,-999.0,94,-99.99,,,0.00,0,weatherlink.com 1.10,2013-10-12 04:16:00,
2013-10-12 00:31:00,50.5,49.0,30.11,North,9,0.0,-999.0,95,-99.99,,,0.00,0,weatherlink.com 1.10,2013-10-12 04:31:00,
2013-10-12 00:46:00,50.5,49.0,30.11,North,9,0.0,-999.0,95,-99.99,,,0.00,0,weatherlink.com 1.10,2013-10-12 04:46:00,
2013-10-12 01:01:00,50.5,49.0,30.11,North,9,0.0,-999.0,95,-99.99,,,0.00,0,weatherlink.com 1.10,2013-10-12 05:01:00,
2013-10-12 01:16:00,50.5,49.0,30.12,North,9,0.0,-999.0,95,-99.99,,,0.00,0,weatherlink.com 1.10,2013-10-12 05:16:00,
2013-10-12 01:31:00,50.7,49.0,30.12,North,9,1.0,-999.0,95,-99.99,,,0.00,0,weatherlink.com 1.10,2013-10-12 05:31:00,
2013-10-12 01:46:00,52.4,51.0,30.12,North,9,0.0,-999.0,96,-99.99,,,0.00,0,weatherlink.com 1.10,2013-10-12 05:46:00,
2013-10-12 02:01:00,53.7,53.0,30.12,North,9,2.0,-999.0,96,-99.99,,,0.00,0,weatherlink.com 1.10,2013-10-12 06:01:00,
2013-10-12 02:16:00,54.5,53.0,30.13,North,9,0.0,-999.0,96,-99.99,,,0.00,0,weatherlink.com 1.10,2013-10-12 06:16:00,
2013-10-12 02:31:00,55.0,54.0,30.13,NNW,340,0.0,-999.0,96,-99.99,,,0.00,0,weatherlink.com 1.10,2013-10-12 06:31:00,
2013-10-12 02:46:00,55.3,54.0,30.13,NNW,348,2.0,-999.0,95,-99.99,,,0.00,0,weatherlink.com 1.10,2013-10-12 06:46:00,
2013-10-12 03:01:00,55.5,54.0,30.13,NNW,348,0.0,-999.0,94,-99.99,,,0.00,0,weatherlink.com 1.10,2013-10-12 07:01:00,
2013-10-12 03:16:00,55.7,54.0,30.13,NNW,348,2.0,-999.0,94,-99.99,,,0.00,0,weatherlink.com 1.10,2013-10-12 07:16:00,
2013-10-12 03:31:00,55.9,54.0,30.13,NNW,348,0.0,-999.0,93,-99.99,,,0.00,0,weatherlink.com 1.10,2013-10-12 07:31:00,
2013-10-12 03:46:00,56.0,54.0,30.14,NNW,348,0.0,-999.0,93,-99.99,,,0.00,0,weatherlink.com 1.10,2013-10-12 07:46:00,
2013-10-12 04:01:00,56.0,54.0,30.14,North,360,0.0,-999.0,93,-99.99,,,0.00,0,weatherlink.com 1.10,2013-10-12 08:01:00,
2013-10-12 04:16:00,55.9,54.0,30.14,North,360,0.0,-999.0,93,-99.99,,,0.00,0,weatherlink.com 1.10,2013-10-12 08:16:00,
2013-10-12 04:31:00,55.8,54.0,30.14,North,360,0.0,-999.0,93,-99.99,,,0.00,0,weatherlink.com 1.10,2013-10-12 08:31:00,
2013-10-12 04:46:00,55.8,54.0,30.15,North,360,0.0,-999.0,92,-99.99,,,0.00,0,weatherlink.com 1.10,2013-10-12 08:46:00,
2013-10-12 05:01:00,55.8,54.0,30.15,NNE,13,0.0,-999.0,92,-99.99,,,0.00,0,weatherlink.com 1.10,2013-10-12 09:01:00,
2013-10-12 05:16:00,55.8,54.0,30.16,NNE,13,0.0,-999.0,92,-99.99,,,0.00,0,weatherlink.com 1.10,2013-10-12 09:16:00,
2013-10-12 05:31:00,55.6,53.0,30.16,North,360,0.0,-999.0,92,-99.99,,,0.00,0,weatherlink.com 1.10,2013-10-12 09:31:00,
2013-10-12 05:46:00,55.7,54.0,30.15,North,360,0.0,-999.0,93,-99.99,,,0.00,0,weatherlink.com 1.10,2013-10-12 09:46:00,
2013-10-12 06:01:00,55.2,53.0,30.16,North,360,0.0,-999.0,92,-99.99,,,0.00,0,weatherlink.com 1.10,2013-10-12 10:01:00,
2013-10-12 06:16:00,54.8,53.0,30.17,North,360,0.0,-999.0,93,-99.99,,,0.00,0,weatherlink.com 1.10,2013-10-12 10:16:00,
2013-10-12 06:31:00,54.7,53.0,30.17,North,360,0.0,-999.0,94,-99.99,,,0.00,0,weatherlink.com 1.10,2013-10-12 10:31:00,
2013-10-12 06:46:00,54.6,53.0,30.18,North,360,2.0,-999.0,94,-99.99,,,0.00,0,weatherlink.com 1.10,2013-10-12 10:46:00,
2013-10-12 07:01:00,54.7,53.0,30.18,North,355,0.0,-999.0,95,-99.99,,,0.00,0,weatherlink.com 1.10,2013-10-12 11:01:00,
2013-10-12 07:16:00,55.3,54.0,30.18,WNW,294,0.0,-999.0,95,-99.99,,,0.00,9,weatherlink.com 1.10,2013-10-12 11:16:00,
2013-10-12 07:32:00,56.4,55.0,30.19,North,11,0.0,-999.0,96,-99.99,,,0.00,18,weatherlink.com 1.10,2013-10-12 11:32:00,
2013-10-12 07:47:00,57.3,56.0,30.20,NNE,12,1.0,-999.0,96,-99.99,,,0.00,19,weatherlink.com 1.10,2013-10-12 11:47:00,
2013-10-12 08:02:00,57.8,57.0,30.22,NNE,15,1.0,-999.0,96,-99.99,,,0.00,21,weatherlink.com 1.10,2013-10-12 12:02:00,
2013-10-12 08:17:00,58.2,57.0,30.23,North,9,0.0,-999.0,96,-99.99,,,0.00,30,weatherlink.com 1.10,2013-10-12 12:17:00,
2013-10-12 08:32:00,58.5,57.0,30.23,WNW,286,0.0,-999.0,96,-99.99,,,0.00,28,weatherlink.com 1.10,2013-10-12 12:32:00,
2013-10-12 08:47:00,58.9,58.0,30.23,South,190,3.0,-999.0,96,-99.99,,,0.00,69,weatherlink.com 1.10,2013-10-12 12:47:00,
2013-10-12 09:02:00,59.4,58.0,30.24,ENE,64,0.0,-999.0,95,-99.99,,,0.00,127,weatherlink.com 1.10,2013-10-12 13:02:00,
2013-10-12 09:17:00,60.0,59.0,30.24,SE,143,5.0,-999.0,95,-99.99,,,0.00,141,weatherlink.com 1.10,2013-10-12 13:17:00,
2013-10-12 09:32:00,60.3,58.0,30.25,NNW,336,1.0,-999.0,93,-99.99,,,0.00,135,weatherlink.com 1.10,2013-10-12 13:32:00,
2013-10-12 09:47:00,60.3,58.0,30.25,South,184,6.0,-999.0,92,-99.99,,,0.00,169,weatherlink.com 1.10,2013-10-12 13:47:00,
2013-10-12 10:02:00,60.5,58.0,30.26,WNW,296,0.0,-999.0,91,-99.99,,,0.00,165,weatherlink.com 1.10,2013-10-12 14:02:00,
2013-10-12 10:17:00,60.6,58.0,30.26,South,186,0.0,-999.0,91,-99.99,,,0.00,199,weatherlink.com 1.10,2013-10-12 14:17:00,
2013-10-12 10:32:00,60.7,58.0,30.26,ESE,111,1.0,-999.0,90,-99.99,,,0.00,236,weatherlink.com 1.10,2013-10-12 14:32:00,
2013-10-12 10:47:00,61.0,58.0,30.27,North,9,0.0,-999.0,88,-99.99,,,0.00,158,weatherlink.com 1.10,2013-10-12 14:47:00,
2013-10-12 11:02:00,60.8,57.0,30.27,South,177,0.0,-999.0,88,-99.99,,,0.00,134,weatherlink.com 1.10,2013-10-12 15:02:00,
2013-10-12 11:17:00,60.5,57.0,30.27,East,93,4.0,-999.0,87,-99.99,,,0.00,155,weatherlink.com 1.10,2013-10-12 15:17:00,
2013-10-12 11:32:00,60.3,57.0,30.28,SE,138,2.0,-999.0,88,-99.99,,,0.00,109,weatherlink.com 1.10,2013-10-12 15:32:00,
2013-10-12 11:47:00,60.0,57.0,30.28,South,190,0.0,-999.0,88,-99.99,,,0.00,160,weatherlink.com 1.10,2013-10-12 15:47:00,
2013-10-12 12:02:00,60.0,57.0,30.28,South,171,0.0,-999.0,89,-99.99,,,0.00,114,weatherlink.com 1.10,2013-10-12 16:02:00,
2013-10-12 12:17:00,59.8,57.0,30.28,ENE,59,0.0,-999.0,89,-99.99,,,0.00,128,weatherlink.com 1.10,2013-10-12 16:17:00,
2013-10-12 12:32:00,59.5,56.0,30.27,West,268,3.0,-999.0,89,-99.99,,,0.00,141,weatherlink.com 1.10,2013-10-12 16:32:00,
2013-10-12 12:47:00,59.4,57.0,30.27,East,97,0.0,-999.0,90,-99.99,,,0.00,111,weatherlink.com 1.10,2013-10-12 16:47:00,
2013-10-12 13:02:00,59.2,56.0,30.28,West,259,0.0,-999.0,90,-99.99,,,0.00,74,weatherlink.com 1.10,2013-10-12 17:02:00,
2013-10-12 13:17:00,59.2,56.0,30.28,ESE,119,0.0,-999.0,90,-99.99,,,0.00,76,weatherlink.com 1.10,2013-10-12 17:17:00,
2013-10-12 13:32:00,59.0,56.0,30.28,East,100,0.0,-999.0,90,-99.99,,,0.00,86,weatherlink.com 1.10,2013-10-12 17:32:00,
2013-10-12 13:47:00,59.0,56.0,30.28,South,175,0.0,-999.0,90,-99.99,,,0.00,62,weatherlink.com 1.10,2013-10-12 17:47:00,
2013-10-12 14:02:00,59.0,56.0,30.28,NNE,24,0.0,-999.0,90,-99.99,,,0.00,60,weatherlink.com 1.10,2013-10-12 18:02:00,
2013-10-12 14:17:00,58.9,56.0,30.28,NNW,335,0.0,-999.0,90,-99.99,,,0.00,65,weatherlink.com 1.10,2013-10-12 18:17:00,
2013-10-12 14:32:00,58.7,56.0,30.28,North,350,0.0,-999.0,90,-99.99,,,0.00,54,weatherlink.com 1.10,2013-10-12 18:32:00,
2013-10-12 14:47:00,58.7,56.0,30.29,ESE,115,0.0,-999.0,90,-99.99,,,0.00,53,weatherlink.com 1.10,2013-10-12 18:47:00,
2013-10-12 15:02:00,58.6,56.0,30.29,SSW,211,0.0,-999.0,90,-99.99,,,0.00,44,weatherlink.com 1.10,2013-10-12 19:02:00,
2013-10-12 15:17:00,58.4,55.0,30.29,South,182,0.0,-999.0,89,-99.99,,,0.00,39,weatherlink.com 1.10,2013-10-12 19:17:00,
2013-10-12 15:32:00,58.2,55.0,30.29,North,355,0.0,-999.0,89,-99.99,,,0.00,39,weatherlink.com 1.10,2013-10-12 19:32:00,
2013-10-12 15:47:00,58.1,55.0,30.29,SE,125,1.0,-999.0,89,-99.99,,,0.00,30,weatherlink.com 1.10,2013-10-12 19:47:00,
2013-10-12 16:02:00,58.1,55.0,30.30,South,173,0.0,-999.0,89,-99.99,,,0.00,63,weatherlink.com 1.10,2013-10-12 20:02:00,
2013-10-12 16:17:00,58.3,55.0,30.30,SSE,164,2.0,-999.0,89,-99.99,,,0.00,42,weatherlink.com 1.10,2013-10-12 20:17:00,
2013-10-12 16:32:00,58.3,55.0,30.30,NW,311,0.0,-999.0,89,-99.99,,,0.00,28,weatherlink.com 1.10,2013-10-12 20:32:00,
2013-10-12 16:47:00,58.1,55.0,30.31,NNW,339,0.0,-999.0,89,-99.99,,,0.00,16,weatherlink.com 1.10,2013-10-12 20:47:00,
2013-10-12 17:02:00,57.8,54.0,30.31,SSE,167,2.0,-999.0,88,-99.99,,,0.00,7,weatherlink.com 1.10,2013-10-12 21:02:00,
2013-10-12 17:17:00,57.7,54.0,30.31,SSE,167,0.0,-999.0,88,-99.99,,,0.00,7,weatherlink.com 1.10,2013-10-12 21:17:00,
2013-10-12 17:32:00,57.4,54.0,30.31,SSW,213,0.0,-999.0,87,-99.99,,,0.00,0,weatherlink.com 1.10,2013-10-12 21:32:00,
2013-10-12 17:47:00,57.3,54.0,30.31,NNW,336,4.0,-999.0,88,-99.99,,,0.00,0,weatherlink.com 1.10,2013-10-12 21:47:00,
2013-10-12 18:02:00,57.2,54.0,30.31,NNE,24,0.0,-999.0,88,-99.99,,,0.00,0,weatherlink.com 1.10,2013-10-12 22:02:00,
2013-10-12 18:17:00,57.1,53.0,30.31,NNW,329,1.0,-999.0,87,-99.99,,,0.00,0,weatherlink.com 1.10,2013-10-12 22:17:00,
2013-10-12 18:32:00,56.9,53.0,30.31,West,261,0.0,-999.0,87,-99.99,,,0.00,0,weatherlink.com 1.10,2013-10-12 22:32:00,
2013-10-12 18:47:00,56.8,53.0,30.31,SSE,152,0.0,-999.0,86,-99.99,,,0.00,0,weatherlink.com 1.10,2013-10-12 22:47:00,
2013-10-12 19:02:00,56.8,53.0,30.32,NNE,28,0.0,-999.0,86,-99.99,,,0.00,0,weatherlink.com 1.10,2013-10-12 23:02:00,
2013-10-12 19:18:00,56.7,53.0,30.33,SSE,165,0.0,-999.0,86,-99.99,,,0.00,0,weatherlink.com 1.10,2013-10-12 23:18:00,
2013-10-12 19:33:00,56.5,52.0,30.33,WNW,290,0.0,-999.0,86,-99.99,,,0.00,0,weatherlink.com 1.10,2013-10-12 23:33:00,
2013-10-12 19:48:00,56.4,52.0,30.33,WNW,292,0.0,-999.0,86,-99.99,,,0.00,0,weatherlink.com 1.10,2013-10-12 23:48:00,
2013-10-12 20:03:00,56.3,52.0,30.34,WNW,298,0.0,-999.0,86,-99.99,,,0.00,0,weatherlink.com 1.10,2013-10-13 00:03:00,
2013-10-12 20:18:00,56.3,52.0,30.34,NE,36,0.0,-999.0,86,-99.99,,,0.00,0,weatherlink.com 1.10,2013-10-13 00:18:00,
2013-10-12 20:33:00,56.2,52.0,30.34,SW,214,0.0,-999.0,86,-99.99,,,0.00,0,weatherlink.com 1.10,2013-10-13 00:33:00,
2013-10-12 20:48:00,56.2,52.0,30.35,WSW,239,0.0,-999.0,86,-99.99,,,0.00,0,weatherlink.com 1.10,2013-10-13 00:48:00,
2013-10-12 21:03:00,56.2,52.0,30.35,West,273,0.0,-999.0,86,-99.99,,,0.00,0,weatherlink.com 1.10,2013-10-13 01:03:00,
2013-10-12 21:18:00,56.2,52.0,30.35,North,351,0.0,-999.0,85,-99.99,,,0.00,0,weatherlink.com 1.10,2013-10-13 01:18:00,
2013-10-12 21:33:00,56.2,52.0,30.36,West,275,0.0,-999.0,85,-99.99,,,0.00,0,weatherlink.com 1.10,2013-10-13 01:33:00,
2013-10-12 21:48:00,56.1,52.0,30.36,NNW,327,0.0,-999.0,85,-99.99,,,0.00,0,weatherlink.com 1.10,2013-10-13 01:48:00,
2013-10-12 22:03:00,56.0,51.0,30.36,NNW,327,0.0,-999.0,84,-99.99,,,0.00,0,weatherlink.com 1.10,2013-10-13 02:03:00,
2013-10-12 22:18:00,56.0,51.0,30.36,NNW,333,0.0,-999.0,83,-99.99,,,0.00,0,weatherlink.com 1.10,2013-10-13 02:18:00,
2013-10-12 22:33:00,55.9,51.0,30.36,NNW,333,0.0,-999.0,84,-99.99,,,0.00,0,weatherlink.com 1.10,2013-10-13 02:33:00,
2013-10-12 22:48:00,55.8,51.0,30.36,SW,224,0.0,-999.0,83,-99.99,,,0.00,0,weatherlink.com 1.10,2013-10-13 02:48:00,
2013-10-12 23:03:00,55.8,51.0,30.35,NW,306,0.0,-999.0,83,-99.99,,,0.00,0,weatherlink.com 1.10,2013-10-13 03:03:00,
2013-10-12 23:18:00,55.5,50.0,30.35,WNW,290,0.0,-999.0,82,-99.99,,,0.00,0,weatherlink.com 1.10,2013-10-13 03:18:00,
2013-10-12 23:33:00,55.4,50.0,30.35,NNW,347,0.0,-999.0,83,-99.99,,,0.00,0,weatherlink.com 1.10,2013-10-13 03:33:00,
2013-10-12 23:48:00,55.4,51.0,30.35,SSE,155,1.0,-999.0,84,-99.99,,,0.00,0,weatherlink.com 1.10,2013-10-13 03:48:00,